Regional Weather Roundup
Issued by NWS Northern Indiana

Home | Current Version | Previous Version | Graphics & Text | Print | Product List | Glossary Off
Versions: 1 2 3 4 5 6 7 8 9 10 11 12 13 14 15 16 17 18 19 20 21 22 23 24 25 26 27 28 29 30 31 32 33 34 35 36 37 38 39 40 41 42 43 44 45 46 47 48 49 50

000
ASUS43 KIWX 292010
RWRIWX

KIWX WEATHER ROUNDUP
NATIONAL WEATHER SERVICE NORTHERN INDIANA
400 PM EDT FRI JUL 29 2016

NOTE: "FAIR" INDICATES FEW OR NO CLOUDS BELOW 12,000 FEET WITH NO
SIGNIFICANT WEATHER AND/OR OBSTRUCTIONS TO VISIBILITY.

* THESE STATIONS ARE NOT UNDER NWS QUALITY CONTROL. THEY ALSO MAY NOT
  REPORT WEATHER SUCH AS PRECIPITATION OR FOG.

INZ001>027-292100-
NORTHERN INDIANA

CITY           SKY/WX    TMP DP  RH WIND       PRES   REMARKS
GARY*          PTSUNNY   77  75  94 CALM      29.92R FOG
VALPARAISO       N/A     69  63  81 MISG      29.95R THUNDER
MICHIGAN CITY* RAIN      64  63  94 MISG      29.91S
LAPORTE*       CLOUDY    70  67  90 SE10G16   29.96R
KNOX*          CLOUDY    72  64  78 NW6       29.92R VSB 3/4
SOUTH BEND     LGT RAIN  77  66  68 NE6       29.92S
ELKHART*       PTSUNNY   81  64  57 E9        29.92S
GOSHEN         CLOUDY    79  65  62 NE7       29.91F
MONTICELLO*    LGT RAIN  77  68  73 CALM      29.88F
LOGANSPORT*    PTSUNNY   81  68  65 N5        29.89F
ROCHESTER*     TSTM      72  68  88 NW12G20   29.91S
WARSAW*        PTSUNNY   77  70  78 E8        29.90F
ANGOLA*          N/A     79  72  78 NE8       29.92F
FORT WAYNE     CLOUDY    88  65  46 N5        29.88F
HUNTINGTON*    LGT RAIN  81  71  72 CALM      29.88F
PERU/GRISSOM   CLOUDY    84  70  63 N9        29.87F
MARION*        PTSUNNY   83  70  62 SW9       29.90F HAZE

$$
INZ028>050-292100-
CENTRAL INDIANA

CITY           SKY/WX    TMP DP  RH WIND       PRES   REMARKS
LAFAYETTE      SUNNY     84  73  69 W9        29.88S
KOKOMO*        CLOUDY    77  66  69 S10       29.89F
MUNCIE*        CLOUDY    78  69  73 SW3       29.90F
INDIANAPOLIS   PTSUNNY   84  71  65 SW14      29.89F

$$
MIZ043>046-050>051-056>058-064>065-071>073-077>080-292100-
SOUTHWEST LOWER MICHIGAN

CITY           SKY/WX    TMP DP  RH WIND       PRES   REMARKS
BATTLE CREEK   PTSUNNY   75  67  76 NE12      29.95F
BENTON HARBOR  CLOUDY    80  68  66 NE7       29.91F
COLDWATER*     MOSUNNY   75  67  77 NE10      29.93F
HILLSDALE*     CLOUDY    76  70  80 N7        29.95S
HOLLAND        SUNNY     78  64  61 E13G23    29.94F
GRAND RAPIDS   PTSUNNY   76  64  66 NE16      29.98F
KALAMAZOO      PTSUNNY   78  66  66 NE8       29.94F
STURGIS*       CLOUDY    76  69  79 NE10      29.92S
THREE RIVERS*  FAIR      78  65  66 NE10G16   29.93F

$$
OHZ001>008-015>018-024>025-292100-
NORTHWEST OHIO

CITY           SKY/WX    TMP DP  RH WIND       PRES   REMARKS
DEFIANCE       PTSUNNY   76  66  71 N13       29.91S
FINDLAY        PTSUNNY   88  62  41 CALM      29.89F
TOLEDO EXPRESS CLOUDY    83  68  60 N13       29.90F
TOLEDO METCALF LGT RAIN  83  66  56 NE9       29.92S
LIMA           PTSUNNY   80  73  79 NE6       29.91F THUNDER

$$
AND FOR LAKE MICHIGAN COASTAL AND OPEN LAKE BUOY OBSERVATIONS

STATION/POSITION TEMP    WIND        PRES    VSBY  WAVE
                 AIR SEA DIR/SP/G                  HT/PER
                 (F)     (DEG/KT/KT) (MB)    (MI)  (FT/S)
CALUMET HARBOR    74     340/  4/  6 1012.1F
MICHIGAN CITY     74      90/ 12/ 14   N/A
BURNS HARBOR      75      40/ 12     1012.5F
SAINT JOSEPH      81     340/  1/  6 1013.2F
SOUTH LAKE BUOY   72 74   60/ 16/ 17 1012.9F         3/ 5
4 MI NW BRIDGMAN  77 77  130/  6/  8 1012.5S         2
MICHIGAN CITY     70 77  120/ 12/ 19   N/A           3/ 5

$$
&&




USA.gov is the U.S. government's official web portal to all federal, state and local government web resources and services.